sat.trackr.live / text

‹ back to catalog

UFO 2 (USA 95)

NORAD 22787 · 1993-056A

PAYLOAD ACTIVE UNKNOWN

§ Identity

Operator
Country
US
Launch date
1993-09-03
Launch site
AFETR
Launch vehicle
Mass (kg)
RCS (m²)
0.00

Purposes: comms

External: N2YO · Heavens-Above · Gunter

§ Orbital elements

Epoch: 2026-05-24T17:36:48.727584Z

Period
1,436.01 min
Inclination
11.8870°
Eccentricity
0.0007989
Mean motion
1.00277887 rev/d
Perigee alt
35,751.2 km
Apogee alt
35,818.6 km
Semi-major
42,163.0 km
B*
0.0000e+0
RAAN
3.6853°
Arg perigee
2.2920°
Mean anomaly
169.2662°
Rev number
11,831

§ Raw data

UFO 2 (USA 95)1 22787U 93056A   26144.73389731  .00000116  00000+0  00000+0 0  99932 22787  11.8870   3.6853 0007989   2.2920 169.2662  1.00277887118312

JSON: /api/v1/satellites/22787 · /tle

For live sub-satellite position, see the globe view (requires WebGL).

§ Visibility from observer

Set your observer location to see the next 7 days of passes ≥ 10°. The values pass through the URL so the page stays shareable.

No JS? Fill the form by hand. The geolocation button needs JavaScript.